Lid_Strength_Index
13 15 19 18 17 16 16 17 18 15 14 16 17 17 14 13 14 14 15 14 13 12 11 10 10 10 10 11 11 10 11 11 11 12 13 13 13 13 12 12 10 10 10 9
13 18 14 13 13 15 17 18 19 16 15 16 17 17 15 14 14 14 14 15 13 12 12 11 10 11 10 10 10 10 10 11 11 12 12 12 13 13 12 11 11 10 9 9
15 15 13 14 16 16 17 19 19 19 17 17 18 20 16 15 14 13 13 13 13 12 12 11 11 11 11 11 11 10 10 10 11 11 11 12 12 12 12 12 11 10 9 9
16 13 14 15 16 16 18 16 16 17 22 24 18 25 19 17 16 14 14 14 13 13 12 11 11 12 11 11 11 10 10 10 10 10 11 12 13 14 13 12 11 10 9 10
16 15 16 16 16 15 17 15 17 18 23 23 21 25 20 17 17 15 15 14 13 12 12 12 11 10 10 10 10 10 10 10 10 10 11 12 13 13 12 11 11 11 10 10
15 12 14 15 14 14 14 17 18 19 25 27 25 23 21 18 16 15 14 14 13 13 13 12 11 11 11 11 11 11 10 10 10 11 12 13 13 13 12 12 12 12 12 12
15 15 14 12 16 14 16 22 25 23 24 25 28 24 20 16 15 14 14 14 14 13 13 13 12 12 12 12 12 11 10 11 11 12 13 13 12 12 12 12 12 12 11 11
22 21 17 13 15 16 17 20 22 27 25 24 27 24 17 14 15 14 13 14 13 13 13 12 12 12 12 12 12 12 12 12 13 13 13 12 11 12 12 12 12 12 11 11
21 19 14 14 13 15 17 23 17 25 30 27 23 19 15 15 18 15 15 14 14 13 13 12 12 12 12 13 12 12 12 13 13 13 12 12 12 12 12 12 11 10 10 11
16 22 17 14 13 15 17 16 22 24 27 29 24 25 18 19 20 19 16 15 15 13 13 12 12 12 12 12 13 13 13 13 13 13 12 12 12 12 12 11 11 11 11 11
16 20 20 16 20 20 20 22 22 21 20 24 27 22 18 17 20 17 16 16 16 15 14 14 13 12 12 13 13 13 14 14 13 12 12 13 12 12 12 12 11 12 11 11
14 17 23 19 15 14 16 19 18 22 24 22 22 22 17 18 21 21 18 16 16 17 14 14 14 13 13 14 14 13 14 14 13 13 13 12 13 13 13 13 12 12 11 10
14 21 26 21 18 17 19 16 16 19 18 23 24 20 19 22 20 19 20 17 16 16 16 16 16 14 14 14 14 15 15 14 13 13 13 14 13 14 13 13 12 12 11 10
12 16 21 22 22 21 21 18 16 18 26 21 19 17 17 17 19 18 18 16 15 14 16 19 18 16 16 16 16 16 15 14 13 13 14 14 15 14 13 12 12 12 11 11
14 17 17 17 18 19 17 18 18 19 18 20 16 17 14 13 12 11 13 16 18 14 14 17 18 17 18 18 18 18 19 18 17 17 19 17 16 13 12 13 13 12 12 11
14 17 21 20 16 15 17 16 16 16 16 17 16 16 11 11 16 17 15 12 13 15 15 17 17 17 16 16 17 18 20 20 20 21 20 21 17 13 15 13 13 12 12 11
15 17 21 20 19 20 21 18 16 16 15 15 18 15 12 13 15 14 14 14 14 14 15 16 16 16 16 17 18 18 20 23 22 23 22 21 14 14 14 14 13 13 13 12
14 15 16 19 22 23 18 15 15 15 14 13 13 13 12 12 17 13 13 13 14 15 15 15 16 19 18 22 22 24 25 23 22 25 23 23 14 13 13 13 13 13 13 13
13 14 16 19 20 18 16 15 15 17 16 12 13 12 11 11 15 13 12 13 12 14 13 14 16 18 21 20 23 22 25 25 24 22 21 21 14 13 13 14 14 14 13 17
15 12 15 17 20 23 17 16 13 13 19 11 11 11 11 13 15 12 9 11 11 12 12 12 12 13 14 15 17 20 22 23 20 20 20 20 20 14 13 14 14 14 14 17
20 17 17 16 17 16 13 13 12 16 16 11 11 10 12 12 11 10 11 12 11 11 11 12 13 13 13 14 16 17 18 20 17 17 18 18 19 16 13 13 14 15 14 15
19 19 19 17 19 19 10 11 13 10 9 9 10 9 10 10 11 11 11 12 12 12 12 12 12 13 13 14 15 16 17 16 16 16 16 16 16 14 14 16 19 19 19 19
19 13 15 13 15 9 8 9 8 8 9 9 9 9 9 10 10 11 11 12 11 12 11 13 12 13 14 15 15 16 16 16 16 17 17 17 17 15 15 17 17 18 18 19
16 13 15 15 14 10 9 8 8 8 7 7 7 8 8 9 9 10 10 9 11 12 13 15 16 15 15 16 16 15 18 17 17 18 19 18 18 17 18 15 16 17 18 19
15 13 14 15 13 11 10 9 7 6 6 7 8 8 8 8 8 10 9 9 9 11 12 14 14 13 14 17 17 18 18 18 17 18 19 18 18 17 17 16 17 16 17 15
12 13 14 15 11 11 11 9 8 9 9 8 8 9 7 9 8 9 9 9 10 11 12 15 14 14 13 17 17 18 18 17 17 18 19 18 17 18 17 17 17 12 13 12